Left ArrowRight Arrow

44.31136, -96.79839

Hourly Observations for June 15, 2020

Temp ( °F °C ) Dew Point ( °F °C ) Humidity (%) Winds ( mph kmh ) Pressure ( in mb ) Visibility ( mi km ) Precip ( " mm )
12:56 am 00:56 Clear 75 23.9 66 18.9 74 74 SSE 18 30 29.98 1015 10 16 0.00 0.00
1:56 am 01:56 Clear 74 23.3 66 18.9 76 76 S 14 22 30.01 1016 10 16 0.00 0.00
2:56 am 02:56 Clear 73 22.8 66 18.9 79 79 S 9 15 30.01 1016 10 16 0.00 0.00
3:56 am 03:56 Clear 72 22 N/A N/A S 9 15 30.00 1016 10 16 0.00 0.00
4:56 am 04:56 Clear 72 22.2 66 18.9 82 82 SSE 12 19 30.00 1016 10 16 0.00 0.00
5:56 am 05:56 Mostly Cloudy with Light Rain 71 21.7 66 18.9 84 84 SSE 15 24 30.00 1016 10 16 0.00 0.00
6:56 am 06:56 Mostly Sunny 72 22.2 65 18.3 79 79 SSE 18 30 29.98 1015 10 16 0.00 0.00
7:56 am 07:56 Sunny 73 22.8 63 17.2 71 71 S 22 35 30.00 1016 10 16 0.00 0.00
11:56 am 11:56 Sunny 81 27.2 58 14.4 45 45 S 18 30 29.93 1013 10 16 0.00 0.00
12:56 pm 12:56 Sunny 84 28.9 59 15 43 43 S 18 30 29.91 1013 10 16 0.00 0.00
1:56 pm 13:56 Sunny 83 28.3 58 14.4 43 43 S 20 32 29.91 1013 10 16 0.00 0.00
2:56 pm 14:56 Sunny 85 29.4 59 15 42 42 S 16 26 29.91 1013 10 16 0.00 0.00
3:56 pm 15:56 Sunny 89 31.7 58 14.4 35 35 S 25 41 29.88 1012 10 16 0.00 0.00
4:56 pm 16:56 Sunny 90 32.2 60 15.6 37 37 SSE 22 35 29.86 1011 10 16 0.00 0.00
5:56 pm 17:56 Sunny 90 32.2 56 13.3 32 32 S 23 37 29.98 1015 10 16 0.00 0.00
6:56 pm 18:56 Sunny 87 30.6 58 14.4 37 37 undefined N/A 29.98 1015 10 16 0.00 0.00
7:56 pm 19:56 Sunny 85 29.4 58 14.4 40 40 S 16 26 29.99 1016 10 16 0.00 0.00
8:56 pm 20:56 Sunny 81 27.2 57 13.9 44 44 SSE 12 19 30.00 1016 10 16 0.00 0.00
9:56 pm 21:56 Clear 81 27.2 59 15 47 47 S 18 30 30.02 1017 10 16 0.00 0.00
10:56 pm 22:56 Clear 79 26.1 61 16.1 54 54 SSE 20 31 30.04 1017 10 16 0.00 0.00
11:56 pm 23:56 Clear 78 25.6 61 16.1 56 56 SSE 17 28 30.04 1017 10 16 0.00 0.00

Powered by Vaisala Xweather